Station Historical Data
Daily Summary for October 28, 2017 Units:  English    Metric   Both
Next Day »
Daily Weekly Monthly Yearly Custom
  High: Low: Average:
Temperature: 77.1 °F 60.7 °F 66.9 °F
Dew Point: 50.9 °F 32.4 °F 43.1 °F
Humidity: 58% 33% 43%
Wind Speed: 11.0mph 0.0mph 1.5mph
Wind Gust: 14.0mph - -
Wind- - ESE
Pressure: 29.98 in 29.89 in -
Precipitation: 0.00 in    
Historical Graphs
 
 
Tabular Data for October 28, 2017
Time Temperature Dew Point Pressure Wind Wind Speed Wind Gust Humidity Rainfall Rate (Hourly) solar Conditions
00:03 63.2 °F 45.3 °F 29.96 in Calm   5.0 mph 52% 0.00 in 0.00 W/m2
00:08 63.2 °F 45.8 °F 29.96 in Calm   6.0 mph 53% 0.00 in 0.00 W/m2
00:13 63.2 °F 45.3 °F 29.96 in Calm   7.0 mph 52% 0.00 in 0.00 W/m2
00:18 63.2 °F 45.3 °F 29.96 in Calm   8.0 mph 52% 0.00 in 0.00 W/m2
00:23 63.1 °F 44.7 °F 29.96 in Calm   8.0 mph 51% 0.00 in 0.00 W/m2
00:28 63.1 °F 44.7 °F 29.96 in Calm   7.0 mph 51% 0.00 in 0.00 W/m2
00:33 63.0 °F 44.1 °F 29.96 in Calm   6.0 mph 50% 0.00 in 0.00 W/m2
00:38 63.0 °F 43.6 °F 29.96 in East 7.0 mph 7.0 mph 49% 0.00 in 0.00 W/m2
00:43 63.0 °F 43.6 °F 29.96 in East 6.0 mph 8.0 mph 49% 0.00 in 0.00 W/m2
00:48 63.0 °F 43.6 °F 29.95 in Calm   7.0 mph 49% 0.00 in 0.00 W/m2
00:53 63.0 °F 43.6 °F 29.95 in East 7.0 mph 8.0 mph 49% 0.00 in 0.00 W/m2
00:58 63.0 °F 43.6 °F 29.96 in Calm   12.0 mph 49% 0.00 in 0.00 W/m2
01:03 62.9 °F 42.9 °F 29.96 in Calm   7.0 mph 48% 0.00 in 0.00 W/m2
01:08 62.9 °F 42.9 °F 29.95 in Calm   7.0 mph 48% 0.00 in 0.00 W/m2
01:13 62.9 °F 42.4 °F 29.95 in East 2.0 mph 8.0 mph 47% 0.00 in 0.00 W/m2
01:18 62.9 °F 41.8 °F 29.95 in East 8.0 mph 8.0 mph 46% 0.00 in 0.00 W/m2
01:23 62.9 °F 41.8 °F 29.95 in East 5.0 mph 5.0 mph 46% 0.00 in 0.00 W/m2
01:28 62.9 °F 41.8 °F 29.95 in Calm   7.0 mph 46% 0.00 in 0.00 W/m2
01:33 62.9 °F 40.7 °F 29.95 in Calm   7.0 mph 44% 0.00 in 0.00 W/m2
01:38 62.9 °F 40.7 °F 29.95 in East 1.0 mph 6.0 mph 44% 0.00 in 0.00 W/m2
01:43 63.0 °F 40.2 °F 29.95 in East 2.0 mph 7.0 mph 43% 0.00 in 0.00 W/m2
01:48 63.0 °F 40.2 °F 29.95 in ESE 8.0 mph 8.0 mph 43% 0.00 in 0.00 W/m2
01:53 62.9 °F 40.1 °F 29.95 in ESE 5.0 mph 8.0 mph 43% 0.00 in 0.00 W/m2
01:58 62.9 °F 40.1 °F 29.95 in ESE 4.0 mph 9.0 mph 43% 0.00 in 0.00 W/m2
02:03 62.9 °F 39.5 °F 29.95 in ESE 8.0 mph 8.0 mph 42% 0.00 in 0.00 W/m2
02:08 62.9 °F 39.5 °F 29.95 in ESE 4.0 mph 8.0 mph 42% 0.00 in 0.00 W/m2
02:13 62.9 °F 38.9 °F 29.95 in ESE 5.0 mph 7.0 mph 41% 0.00 in 0.00 W/m2
02:18 63.0 °F 39.6 °F 29.95 in ESE 4.0 mph 9.0 mph 42% 0.00 in 0.00 W/m2
02:23 63.0 °F 39.0 °F 29.95 in Calm   8.0 mph 41% 0.00 in 0.00 W/m2
02:28 63.0 °F 40.2 °F 29.95 in ESE 7.0 mph 8.0 mph 43% 0.00 in 0.00 W/m2
02:33 62.9 °F 39.5 °F 29.95 in ESE 5.0 mph 8.0 mph 42% 0.00 in 0.00 W/m2
02:38 62.9 °F 39.5 °F 29.95 in ESE 5.0 mph 8.0 mph 42% 0.00 in 0.00 W/m2
02:43 62.9 °F 39.5 °F 29.95 in ESE 4.0 mph 7.0 mph 42% 0.00 in 0.00 W/m2
02:48 62.8 °F 39.4 °F 29.95 in ESE 5.0 mph 8.0 mph 42% 0.00 in 0.00 W/m2
02:54 62.8 °F 39.4 °F 29.96 in ESE 1.0 mph 7.0 mph 42% 0.00 in 0.00 W/m2
02:59 62.7 °F 38.7 °F 29.95 in Calm   7.0 mph 41% 0.00 in 0.00 W/m2
03:04 62.7 °F 38.7 °F 29.95 in Calm   6.0 mph 41% 0.00 in 0.00 W/m2
03:09 62.6 °F 38.6 °F 29.95 in Calm   4.0 mph 41% 0.00 in 0.00 W/m2
03:14 62.6 °F 38.6 °F 29.95 in East 2.0 mph 5.0 mph 41% 0.00 in 0.00 W/m2
03:19 62.5 °F 37.9 °F 29.95 in Calm   7.0 mph 40% 0.00 in 0.00 W/m2
03:24 62.5 °F 38.5 °F 29.95 in Calm   4.0 mph 41% 0.00 in 0.00 W/m2
03:29 62.4 °F 38.4 °F 29.95 in Calm   6.0 mph 41% 0.00 in 0.00 W/m2
03:34 62.3 °F 37.7 °F 29.95 in Calm   7.0 mph 40% 0.00 in 0.00 W/m2
03:39 62.3 °F 37.7 °F 29.95 in ESE 5.0 mph 9.0 mph 40% 0.00 in 0.00 W/m2
03:44 62.2 °F 37.0 °F 29.95 in ESE 2.0 mph 8.0 mph 39% 0.00 in 0.00 W/m2
03:49 62.1 °F 37.5 °F 29.95 in ESE 1.0 mph 7.0 mph 40% 0.00 in 0.00 W/m2
03:54 62.1 °F 38.1 °F 29.95 in ESE 1.0 mph 9.0 mph 41% 0.00 in 0.00 W/m2
03:59 62.0 °F 37.4 °F 29.95 in ESE 4.0 mph 8.0 mph 40% 0.00 in 0.00 W/m2
04:04 62.0 °F 37.4 °F 29.95 in Calm   7.0 mph 40% 0.00 in 0.00 W/m2
04:09 61.9 °F 37.3 °F 29.95 in ESE 5.0 mph 9.0 mph 40% 0.00 in 0.00 W/m2
04:14 61.8 °F 37.2 °F 29.95 in ESE 5.0 mph 11.0 mph 40% 0.00 in 0.00 W/m2
04:19 61.8 °F 36.6 °F 29.95 in ESE 4.0 mph 8.0 mph 39% 0.00 in 0.00 W/m2
04:24 61.7 °F 37.2 °F 29.95 in Calm   9.0 mph 40% 0.00 in 0.00 W/m2
04:29 61.7 °F 37.2 °F 29.95 in Calm   8.0 mph 40% 0.00 in 0.00 W/m2
04:34 61.6 °F 36.4 °F 29.95 in Calm   9.0 mph 39% 0.00 in 0.00 W/m2
04:39 61.6 °F 36.4 °F 29.95 in ESE 4.0 mph 11.0 mph 39% 0.00 in 0.00 W/m2
04:44 61.5 °F 36.3 °F 29.95 in East 1.0 mph 9.0 mph 39% 0.00 in 0.00 W/m2
04:49 61.4 °F 36.2 °F 29.95 in Calm   12.0 mph 39% 0.00 in 0.00 W/m2
04:54 61.4 °F 34.9 °F 29.95 in East 2.0 mph 12.0 mph 37% 0.00 in 0.00 W/m2
04:59 61.3 °F 34.8 °F 29.95 in Calm   12.0 mph 37% 0.00 in 0.00 W/m2
05:04 61.3 °F 36.2 °F 29.95 in Calm   8.0 mph 39% 0.00 in 0.00 W/m2
05:09 61.3 °F 36.2 °F 29.95 in East 2.0 mph 9.0 mph 39% 0.00 in 0.00 W/m2
05:15 61.2 °F 35.4 °F 29.95 in ESE 1.0 mph 8.0 mph 38% 0.00 in 0.00 W/m2
05:20 61.1 °F 36.0 °F 29.96 in East 4.0 mph 9.0 mph 39% 0.00 in 0.00 W/m2
05:25 61.0 °F 35.2 °F 29.95 in Calm   9.0 mph 38% 0.00 in 0.00 W/m2
05:30 60.9 °F 34.5 °F 29.95 in Calm   9.0 mph 37% 0.00 in 0.00 W/m2
05:35 60.9 °F 34.5 °F 29.95 in East 2.0 mph 8.0 mph 37% 0.00 in 0.00 W/m2
05:40 60.9 °F 35.8 °F 29.96 in East 5.0 mph 8.0 mph 39% 0.00 in 0.00 W/m2
05:45 60.8 °F 35.1 °F 29.96 in Calm   11.0 mph 38% 0.00 in 0.00 W/m2
05:50 60.7 °F 35.0 °F 29.95 in ESE 5.0 mph 11.0 mph 38% 0.00 in 0.00 W/m2
05:55 60.7 °F 34.3 °F 29.95 in ESE 1.0 mph 9.0 mph 37% 0.00 in 0.00 W/m2
06:00 60.7 °F 34.3 °F 29.95 in ESE 2.0 mph 12.0 mph 37% 0.00 in 0.00 W/m2
06:05 60.7 °F 34.3 °F 29.95 in East 4.0 mph 11.0 mph 37% 0.00 in 0.00 W/m2
06:10 60.7 °F 34.3 °F 29.95 in East 4.0 mph 12.0 mph 37% 0.00 in 0.00 W/m2
06:15 60.7 °F 33.6 °F 29.95 in ESE 8.0 mph 14.0 mph 36% 0.00 in 0.00 W/m2
06:20 60.7 °F 33.6 °F 29.95 in East 4.0 mph 11.0 mph 36% 0.00 in 0.00 W/m2
06:25 60.7 °F 34.3 °F 29.95 in East 7.0 mph 13.0 mph 37% 0.00 in 0.00 W/m2
06:30 60.7 °F 34.3 °F 29.95 in East 7.0 mph 11.0 mph 37% 0.00 in 0.00 W/m2
06:35 60.8 °F 33.7 °F 29.95 in East 4.0 mph 11.0 mph 36% 0.00 in 0.00 W/m2
06:40 60.8 °F 34.4 °F 29.95 in ESE 2.0 mph 11.0 mph 37% 0.00 in 0.00 W/m2
06:45 60.8 °F 33.7 °F 29.95 in East 6.0 mph 8.0 mph 36% 0.00 in 0.00 W/m2
06:50 60.8 °F 33.7 °F 29.95 in Calm   9.0 mph 36% 0.00 in 0.00 W/m2
06:55 60.8 °F 33.7 °F 29.95 in Calm   8.0 mph 36% 0.00 in 0.00 W/m2
07:00 60.8 °F 33.7 °F 29.95 in Calm   8.0 mph 36% 0.00 in 0.00 W/m2
07:05 60.8 °F 33.7 °F 29.96 in East 4.0 mph 8.0 mph 36% 0.00 in 0.00 W/m2
07:10 60.8 °F 33.7 °F 29.96 in East 2.0 mph 8.0 mph 36% 0.00 in 0.00 W/m2
07:15 60.9 °F 33.8 °F 29.96 in Calm   11.0 mph 36% 0.00 in 0.00 W/m2
07:20 60.9 °F 32.4 °F 29.96 in Calm   12.0 mph 34% 0.00 in 0.00 W/m2
07:25 60.9 °F 33.1 °F 29.96 in East 1.0 mph 11.0 mph 35% 0.00 in 5.00 W/m2
07:27 60.9 °F 33.1 °F 29.96 in East 1.0 mph 9.0 mph 35% 0.00 in 7.00 W/m2
07:32 61.0 °F 33.2 °F 29.96 in Calm   8.0 mph 35% 0.00 in 9.00 W/m2
07:37 61.0 °F 33.9 °F 29.96 in East 4.0 mph 6.0 mph 36% 0.00 in 11.00 W/m2
07:42 61.1 °F 33.3 °F 29.96 in Calm   7.0 mph 35% 0.00 in 14.00 W/m2
07:47 61.1 °F 33.3 °F 29.96 in East 6.0 mph 8.0 mph 35% 0.00 in 18.00 W/m2
07:52 61.2 °F 32.6 °F 29.96 in ESE 6.0 mph 9.0 mph 34% 0.00 in 23.00 W/m2
07:57 61.2 °F 32.6 °F 29.96 in Calm   9.0 mph 34% 0.00 in 33.00 W/m2
08:02 61.3 °F 33.4 °F 29.97 in East 6.0 mph 7.0 mph 35% 0.00 in 47.00 W/m2
08:07 61.4 °F 33.5 °F 29.97 in Calm   8.0 mph 35% 0.00 in 62.00 W/m2
08:12 61.5 °F 32.9 °F 29.97 in ESE 5.0 mph 8.0 mph 34% 0.00 in 76.00 W/m2
08:17 61.6 °F 33.7 °F 29.97 in ESE 6.0 mph 9.0 mph 35% 0.00 in 91.00 W/m2
08:27 61.7 °F 33.8 °F 29.97 in ESE 4.0 mph 8.0 mph 35% 0.00 in 123.00 W/m2
08:33 61.8 °F 33.9 °F 29.97 in Calm   8.0 mph 35% 0.00 in 141.00 W/m2
08:38 61.8 °F 33.9 °F 29.97 in East 4.0 mph 12.0 mph 35% 0.00 in 162.00 W/m2
08:43 61.9 °F 34.7 °F 29.97 in Calm   9.0 mph 36% 0.00 in 181.00 W/m2
08:48 62.0 °F 35.5 °F 29.97 in East 7.0 mph 9.0 mph 37% 0.00 in 202.00 W/m2
08:53 62.1 °F 34.8 °F 29.97 in Calm   7.0 mph 36% 0.00 in 221.00 W/m2
08:58 62.2 °F 35.6 °F 29.97 in ESE 5.0 mph 9.0 mph 37% 0.00 in 243.00 W/m2
09:03 62.3 °F 35.0 °F 29.97 in ESE 1.0 mph 11.0 mph 36% 0.00 in 258.00 W/m2
09:04 62.4 °F 35.1 °F 29.97 in Calm   11.0 mph 36% 0.00 in 265.00 W/m2
09:09 62.5 °F 35.2 °F 29.97 in Calm   6.0 mph 36% 0.00 in 281.00 W/m2
09:14 62.7 °F 35.4 °F 29.97 in Calm   7.0 mph 36% 0.00 in 301.00 W/m2
09:19 62.9 °F 36.9 °F 29.97 in ESE 1.0 mph 8.0 mph 38% 0.00 in 316.00 W/m2
09:24 63.1 °F 37.1 °F 29.97 in ESE 1.0 mph 6.0 mph 38% 0.00 in 330.00 W/m2
09:29 63.2 °F 37.2 °F 29.97 in Calm   7.0 mph 38% 0.00 in 345.00 W/m2
09:34 63.5 °F 36.8 °F 29.97 in Calm   4.0 mph 37% 0.00 in 359.00 W/m2
09:39 63.7 °F 37.0 °F 29.97 in Calm   7.0 mph 37% 0.00 in 371.00 W/m2
09:44 64.0 °F 37.2 °F 29.97 in Calm   6.0 mph 37% 0.00 in 385.00 W/m2
09:49 64.2 °F 38.8 °F 29.97 in ESE 5.0 mph 6.0 mph 39% 0.00 in 397.00 W/m2
09:54 64.4 °F 38.9 °F 29.97 in Calm   4.0 mph 39% 0.00 in 410.00 W/m2
10:00 64.7 °F 37.2 °F 29.97 in Calm   5.0 mph 36% 0.00 in 424.00 W/m2
10:05 65.0 °F 40.1 °F 29.97 in Calm   1.0 mph 40% 0.00 in 436.00 W/m2
10:10 65.3 °F 41.0 °F 29.97 in Calm   2.0 mph 41% 0.00 in 448.00 W/m2
10:15 65.6 °F 39.3 °F 29.97 in Calm   2.0 mph 38% 0.00 in 461.00 W/m2
10:20 66.0 °F 37.6 °F 29.97 in Calm   5.0 mph 35% 0.00 in 473.00 W/m2
10:25 66.3 °F 36.4 °F 29.98 in Calm   1.0 mph 33% 0.00 in 483.00 W/m2
10:30 66.7 °F 37.5 °F 29.98 in Calm   1.0 mph 34% 0.00 in 492.00 W/m2
10:35 67.0 °F 39.2 °F 29.97 in Calm   2.0 mph 36% 0.00 in 503.00 W/m2
10:40 67.4 °F 38.8 °F 29.97 in Calm   1.0 mph 35% 0.00 in 512.00 W/m2
10:45 67.9 °F 40.0 °F 29.98 in Calm   1.0 mph 36% 0.00 in 522.00 W/m2
10:50 68.5 °F 40.5 °F 29.98 in Calm   1.0 mph 36% 0.00 in 531.00 W/m2
10:55 68.8 °F 40.1 °F 29.98 in Calm   1.0 mph 35% 0.00 in 541.00 W/m2
10:59 69.2 °F 40.4 °F 29.98 in Calm     35% 0.00 in 547.00 W/m2
11:04 69.7 °F 40.8 °F 29.98 in Calm     35% 0.00 in 555.00 W/m2
11:09 70.0 °F 41.8 °F 29.98 in Calm   2.0 mph 36% 0.00 in 563.00 W/m2
11:14 70.6 °F 42.4 °F 29.97 in Calm   2.0 mph 36% 0.00 in 570.00 W/m2
11:18 71.1 °F 43.5 °F 29.97 in Calm   2.0 mph 37% 0.00 in 577.00 W/m2
11:24 71.5 °F 43.2 °F 29.97 in Calm   2.0 mph 36% 0.00 in 584.00 W/m2
11:29 72.0 °F 45.0 °F 29.97 in Calm   4.0 mph 38% 0.00 in 589.00 W/m2
11:34 72.3 °F 44.6 °F 29.97 in ESE 1.0 mph 8.0 mph 37% 0.00 in 594.00 W/m2
11:39 72.6 °F 44.1 °F 29.97 in Calm   5.0 mph 36% 0.00 in 601.00 W/m2
11:44 72.9 °F 44.4 °F 29.97 in Calm   2.0 mph 36% 0.00 in 606.00 W/m2
11:49 73.3 °F 44.8 °F 29.96 in Calm   6.0 mph 36% 0.00 in 612.00 W/m2
11:54 73.5 °F 44.9 °F 29.96 in SE 7.0 mph 7.0 mph 36% 0.00 in 615.00 W/m2
11:59 73.7 °F 45.1 °F 29.96 in Calm   4.0 mph 36% 0.00 in 619.00 W/m2
12:04 73.7 °F 45.8 °F 29.96 in Calm   2.0 mph 37% 0.00 in 624.00 W/m2
12:09 73.8 °F 45.2 °F 29.95 in SE 2.0 mph 9.0 mph 36% 0.00 in 626.00 W/m2
12:14 73.9 °F 44.5 °F 29.95 in Calm   7.0 mph 35% 0.00 in 629.00 W/m2
12:19 74.0 °F 45.4 °F 29.95 in SSE 2.0 mph 6.0 mph 36% 0.00 in 631.00 W/m2
12:24 74.2 °F 44.8 °F 29.95 in Calm   2.0 mph 35% 0.00 in 633.00 W/m2
12:29 74.3 °F 45.7 °F 29.95 in Calm   2.0 mph 36% 0.00 in 633.00 W/m2
12:34 74.6 °F 45.2 °F 29.95 in Calm   2.0 mph 35% 0.00 in 636.00 W/m2
12:39 74.8 °F 46.1 °F 29.95 in Calm     36% 0.00 in 636.00 W/m2
12:44 75.0 °F 46.3 °F 29.95 in SSE 4.0 mph 5.0 mph 36% 0.00 in 638.00 W/m2
12:49 75.1 °F 46.3 °F 29.94 in Calm   5.0 mph 36% 0.00 in 636.00 W/m2
12:54 75.2 °F 45.7 °F 29.94 in Calm   6.0 mph 35% 0.00 in 636.00 W/m2
12:59 75.3 °F 46.5 °F 29.94 in Calm   5.0 mph 36% 0.00 in 633.00 W/m2
13:04 75.4 °F 45.9 °F 29.94 in Calm   6.0 mph 35% 0.00 in 633.00 W/m2
13:09 75.4 °F 46.6 °F 29.94 in Calm   2.0 mph 36% 0.00 in 629.00 W/m2
13:14 75.5 °F 46.7 °F 29.94 in Calm   3.0 mph 36% 0.00 in 626.00 W/m2
13:19 75.6 °F 46.8 °F 29.94 in WSW 2.0 mph 5.0 mph 36% 0.00 in 624.00 W/m2
13:24 75.6 °F 46.8 °F 29.93 in Calm     36% 0.00 in 622.00 W/m2
13:29 75.7 °F 47.6 °F 29.93 in WSW 2.0 mph 6.0 mph 37% 0.00 in 619.00 W/m2
13:34 75.8 °F 47.7 °F 29.93 in SW 1.0 mph 7.0 mph 37% 0.00 in 615.00 W/m2
13:39 75.8 °F 47.0 °F 29.93 in SW 2.0 mph 3.0 mph 36% 0.00 in 610.00 W/m2
13:44 76.0 °F 47.2 °F 29.93 in SW 5.0 mph 6.0 mph 36% 0.00 in 605.00 W/m2
13:49 76.1 °F 46.5 °F 29.92 in Calm   3.0 mph 35% 0.00 in 601.00 W/m2
13:54 76.3 °F 46.7 °F 29.92 in SW 8.0 mph 8.0 mph 35% 0.00 in 594.00 W/m2
13:59 76.4 °F 46.8 °F 29.92 in Calm   8.0 mph 35% 0.00 in 587.00 W/m2
14:04 76.5 °F 46.8 °F 29.92 in Calm   2.0 mph 35% 0.00 in 580.00 W/m2
14:09 76.6 °F 46.9 °F 29.92 in WSW 2.0 mph 2.0 mph 35% 0.00 in 571.00 W/m2
14:14 76.7 °F 47.0 °F 29.92 in Calm   5.0 mph 35% 0.00 in 566.00 W/m2
14:19 76.8 °F 47.8 °F 29.92 in Calm   6.0 mph 36% 0.00 in 559.00 W/m2
14:24 76.8 °F 47.8 °F 29.91 in Calm   3.0 mph 36% 0.00 in 550.00 W/m2
14:30 76.8 °F 47.1 °F 29.91 in Calm   1.0 mph 35% 0.00 in 543.00 W/m2
14:35 76.8 °F 47.8 °F 29.91 in Calm   1.0 mph 36% 0.00 in 534.00 W/m2
14:40 76.8 °F 47.8 °F 29.91 in Calm   3.0 mph 36% 0.00 in 527.00 W/m2
14:45 76.9 °F 47.2 °F 29.91 in Calm     35% 0.00 in 517.00 W/m2
14:50 76.8 °F 47.1 °F 29.91 in Calm   3.0 mph 35% 0.00 in 506.00 W/m2
14:55 76.9 °F 47.9 °F 29.91 in WSW 1.0 mph 3.0 mph 36% 0.00 in 496.00 W/m2
15:00 76.9 °F 47.9 °F 29.91 in Calm   6.0 mph 36% 0.00 in 485.00 W/m2
15:05 77.0 °F 48.0 °F 29.91 in Calm   5.0 mph 36% 0.00 in 476.00 W/m2
15:10 77.0 °F 47.3 °F 29.91 in Calm   5.0 mph 35% 0.00 in 464.00 W/m2
15:15 77.1 °F 48.1 °F 29.91 in Calm     36% 0.00 in 455.00 W/m2
15:20 77.1 °F 48.1 °F 29.91 in WSW 3.0 mph 3.0 mph 36% 0.00 in 441.00 W/m2
15:25 77.1 °F 48.8 °F 29.91 in Calm   5.0 mph 37% 0.00 in 429.00 W/m2
15:30 77.1 °F 47.4 °F 29.91 in Calm   2.0 mph 35% 0.00 in 417.00 W/m2
15:35 77.0 °F 47.3 °F 29.91 in Calm   5.0 mph 35% 0.00 in 404.00 W/m2
15:40 76.9 °F 47.9 °F 29.91 in Calm   4.0 mph 36% 0.00 in 392.00 W/m2
15:45 76.9 °F 47.9 °F 29.90 in Calm   5.0 mph 36% 0.00 in 380.00 W/m2
15:50 76.8 °F 47.8 °F 29.90 in Calm   3.0 mph 36% 0.00 in 366.00 W/m2
15:55 76.7 °F 48.5 °F 29.91 in Calm   3.0 mph 37% 0.00 in 352.00 W/m2
16:00 76.6 °F 47.7 °F 29.90 in WNW 3.0 mph 5.0 mph 36% 0.00 in 338.00 W/m2
16:05 76.6 °F 47.7 °F 29.90 in Calm   3.0 mph 36% 0.00 in 323.00 W/m2
16:10 76.5 °F 47.6 °F 29.90 in Calm     36% 0.00 in 309.00 W/m2
16:15 76.5 °F 48.3 °F 29.90 in Calm   1.0 mph 37% 0.00 in 294.00 W/m2
16:20 76.4 °F 48.2 °F 29.90 in Calm   3.0 mph 37% 0.00 in 279.00 W/m2
16:25 76.3 °F 48.1 °F 29.90 in WNW 4.0 mph 4.0 mph 37% 0.00 in 267.00 W/m2
16:30 76.2 °F 48.0 °F 29.90 in Calm   3.0 mph 37% 0.00 in 253.00 W/m2
16:35 76.1 °F 48.7 °F 29.90 in Calm   7.0 mph 38% 0.00 in 237.00 W/m2
16:45 75.9 °F 48.5 °F 29.90 in Calm   6.0 mph 38% 0.00 in 204.00 W/m2
16:50 75.8 °F 48.4 °F 29.90 in Calm   6.0 mph 38% 0.00 in 185.00 W/m2
16:55 75.8 °F 48.4 °F 29.90 in Calm   4.0 mph 38% 0.00 in 165.00 W/m2
17:00 75.7 °F 48.3 °F 29.90 in Calm   4.0 mph 38% 0.00 in 146.00 W/m2
17:05 75.6 °F 48.9 °F 29.90 in Calm   1.0 mph 39% 0.00 in 127.00 W/m2
17:10 75.5 °F 49.5 °F 29.90 in Calm   1.0 mph 40% 0.00 in 109.00 W/m2
17:15 75.3 °F 49.3 °F 29.90 in Calm   4.0 mph 40% 0.00 in 93.00 W/m2
17:20 75.2 °F 49.2 °F 29.90 in Calm   1.0 mph 40% 0.00 in 77.00 W/m2
17:25 75.0 °F 49.7 °F 29.90 in Calm     41% 0.00 in 62.00 W/m2
17:30 74.8 °F 50.2 °F 29.90 in Calm     42% 0.00 in 51.00 W/m2
17:35 74.6 °F 50.7 °F 29.90 in Calm     43% 0.00 in 37.00 W/m2
17:40 74.2 °F 50.9 °F 29.90 in Calm     44% 0.00 in 26.00 W/m2
17:45 73.8 °F 49.9 °F 29.90 in Calm     43% 0.00 in 21.00 W/m2
17:50 73.4 °F 50.2 °F 29.90 in Calm     44% 0.00 in 16.00 W/m2
17:55 72.9 °F 50.3 °F 29.90 in Calm     45% 0.00 in 12.00 W/m2
18:00 72.3 °F 50.4 °F 29.89 in Calm     46% 0.00 in 11.00 W/m2
18:05 71.7 °F 50.4 °F 29.89 in Calm     47% 0.00 in 7.00 W/m2
18:10 70.9 °F 50.2 °F 29.90 in Calm     48% 0.00 in 5.00 W/m2
18:15 70.5 °F 50.4 °F 29.90 in Calm     49% 0.00 in 0.00 W/m2
18:20 70.2 °F 50.2 °F 29.89 in Calm     49% 0.00 in 0.00 W/m2
18:25 69.7 °F 50.2 °F 29.89 in Calm     50% 0.00 in 0.00 W/m2
18:30 69.1 °F 50.2 °F 29.89 in Calm     51% 0.00 in 0.00 W/m2
18:35 68.6 °F 49.8 °F 29.89 in Calm     51% 0.00 in 0.00 W/m2
18:40 68.2 °F 49.9 °F 29.90 in Calm     52% 0.00 in 0.00 W/m2
18:45 67.8 °F 49.5 °F 29.89 in Calm     52% 0.00 in 0.00 W/m2
18:50 67.5 °F 49.3 °F 29.90 in Calm     52% 0.00 in 0.00 W/m2
18:55 67.2 °F 49.0 °F 29.90 in Calm     52% 0.00 in 0.00 W/m2
19:00 67.0 °F 49.3 °F 29.90 in Calm     53% 0.00 in 0.00 W/m2
19:05 66.8 °F 49.1 °F 29.89 in Calm     53% 0.00 in 0.00 W/m2
19:10 66.6 °F 49.0 °F 29.90 in Calm     53% 0.00 in 0.00 W/m2
19:15 66.4 °F 48.8 °F 29.89 in Calm     53% 0.00 in 0.00 W/m2
19:20 66.2 °F 48.6 °F 29.89 in Calm     53% 0.00 in 0.00 W/m2
19:25 66.1 °F 49.0 °F 29.89 in Calm     54% 0.00 in 0.00 W/m2
19:30 66.0 °F 48.9 °F 29.90 in Calm     54% 0.00 in 0.00 W/m2
19:35 65.9 °F 48.8 °F 29.90 in Calm     54% 0.00 in 0.00 W/m2
19:40 65.8 °F 48.7 °F 29.90 in Calm     54% 0.00 in 0.00 W/m2
19:45 65.8 °F 48.7 °F 29.90 in Calm     54% 0.00 in 0.00 W/m2
19:50 65.6 °F 48.5 °F 29.90 in Calm   1.0 mph 54% 0.00 in 0.00 W/m2
19:55 65.4 °F 48.3 °F 29.90 in Calm     54% 0.00 in 0.00 W/m2
20:00 65.4 °F 48.8 °F 29.90 in Calm     55% 0.00 in 0.00 W/m2
20:05 65.3 °F 48.7 °F 29.90 in Calm     55% 0.00 in 0.00 W/m2
20:11 65.2 °F 48.6 °F 29.90 in Calm     55% 0.00 in 0.00 W/m2
20:20 65.0 °F 48.9 °F 29.90 in Calm     56% 0.00 in 0.00 W/m2
20:22 65.0 °F 48.9 °F 29.90 in Calm     56% 0.00 in 0.00 W/m2
20:24 65.0 °F 48.9 °F 29.90 in Calm     56% 0.00 in 0.00 W/m2
20:26 64.9 °F 48.8 °F 29.90 in Calm     56% 0.00 in 0.00 W/m2
20:28 64.9 °F 48.8 °F 29.90 in Calm     56% 0.00 in 0.00 W/m2
20:33 64.8 °F 48.8 °F 29.90 in Calm     56% 0.00 in 0.00 W/m2
20:38 64.8 °F 49.2 °F 29.90 in Calm     57% 0.00 in 0.00 W/m2
20:42 64.7 °F 48.7 °F 29.90 in Calm     56% 0.00 in 0.00 W/m2
20:47 64.6 °F 49.0 °F 29.90 in Calm   4.0 mph 57% 0.00 in 0.00 W/m2
20:53 64.6 °F 49.0 °F 29.90 in Calm   4.0 mph 57% 0.00 in 0.00 W/m2
20:58 64.5 °F 49.0 °F 29.90 in SSW 1.0 mph 4.0 mph 57% 0.00 in 0.00 W/m2
21:03 64.5 °F 49.0 °F 29.90 in South 2.0 mph 6.0 mph 57% 0.00 in 0.00 W/m2
21:08 64.4 °F 48.8 °F 29.90 in Calm   5.0 mph 57% 0.00 in 0.00 W/m2
21:13 64.3 °F 48.8 °F 29.90 in SSE 2.0 mph 5.0 mph 57% 0.00 in 0.00 W/m2
21:18 64.3 °F 48.8 °F 29.91 in Calm   5.0 mph 57% 0.00 in 0.00 W/m2
21:23 64.2 °F 48.7 °F 29.90 in SE 1.0 mph 6.0 mph 57% 0.00 in 0.00 W/m2
21:28 64.1 °F 49.0 °F 29.91 in Calm   5.0 mph 58% 0.00 in 0.00 W/m2
21:33 64.0 °F 48.5 °F 29.91 in Calm   5.0 mph 57% 0.00 in 0.00 W/m2
21:38 64.0 °F 48.9 °F 29.91 in SE 1.0 mph 5.0 mph 58% 0.00 in 0.00 W/m2
21:43 63.9 °F 48.8 °F 29.91 in Calm   6.0 mph 58% 0.00 in 0.00 W/m2
21:48 63.8 °F 48.8 °F 29.91 in SE 1.0 mph 6.0 mph 58% 0.00 in 0.00 W/m2
21:53 63.8 °F 48.8 °F 29.91 in Calm   6.0 mph 58% 0.00 in 0.00 W/m2
21:58 63.7 °F 48.2 °F 29.91 in ESE 4.0 mph 7.0 mph 57% 0.00 in 0.00 W/m2
22:03 63.7 °F 48.7 °F 29.91 in ESE 5.0 mph 8.0 mph 58% 0.00 in 0.00 W/m2
22:08 63.7 °F 48.7 °F 29.91 in ESE 5.0 mph 8.0 mph 58% 0.00 in 0.00 W/m2
22:13 63.8 °F 48.8 °F 29.91 in ESE 4.0 mph 7.0 mph 58% 0.00 in 0.00 W/m2
22:18 63.8 °F 48.8 °F 29.91 in ESE 6.0 mph 8.0 mph 58% 0.00 in 0.00 W/m2
22:23 63.9 °F 48.4 °F 29.91 in ESE 4.0 mph 12.0 mph 57% 0.00 in 0.00 W/m2
22:28 63.9 °F 48.8 °F 29.91 in East 2.0 mph 9.0 mph 58% 0.00 in 0.00 W/m2
22:34 64.0 °F 48.5 °F 29.91 in ESE 4.0 mph 12.0 mph 57% 0.00 in 0.00 W/m2
22:39 64.0 °F 48.5 °F 29.91 in East 8.0 mph 11.0 mph 57% 0.00 in 0.00 W/m2
22:44 64.1 °F 48.6 °F 29.91 in East 5.0 mph 8.0 mph 57% 0.00 in 0.00 W/m2
22:49 64.1 °F 48.6 °F 29.91 in East 5.0 mph 11.0 mph 57% 0.00 in 0.00 W/m2
22:54 64.1 °F 48.6 °F 29.91 in East 11.0 mph 13.0 mph 57% 0.00 in 0.00 W/m2
22:59 64.2 °F 48.2 °F 29.90 in East 6.0 mph 11.0 mph 56% 0.00 in 0.00 W/m2
23:04 64.2 °F 48.2 °F 29.91 in East 6.0 mph 11.0 mph 56% 0.00 in 0.00 W/m2
23:09 64.2 °F 48.2 °F 29.91 in Calm   8.0 mph 56% 0.00 in 0.00 W/m2
23:14 64.2 °F 48.2 °F 29.90 in Calm   13.0 mph 56% 0.00 in 0.00 W/m2
23:19 64.3 °F 48.3 °F 29.90 in East 2.0 mph 11.0 mph 56% 0.00 in 0.00 W/m2
23:24 64.3 °F 47.8 °F 29.90 in ESE 8.0 mph 11.0 mph 55% 0.00 in 0.00 W/m2
23:29 64.3 °F 47.8 °F 29.91 in ESE 5.0 mph 12.0 mph 55% 0.00 in 0.00 W/m2
23:34 64.3 °F 47.8 °F 29.90 in Calm   11.0 mph 55% 0.00 in 0.00 W/m2
23:39 64.3 °F 47.8 °F 29.90 in Calm   12.0 mph 55% 0.00 in 0.00 W/m2
23:45 64.3 °F 47.8 °F 29.90 in East 9.0 mph 12.0 mph 55% 0.00 in 0.00 W/m2
23:50 64.3 °F 47.8 °F 29.90 in Calm   13.0 mph 55% 0.00 in 0.00 W/m2
23:55 64.3 °F 47.8 °F 29.90 in Calm   12.0 mph 55% 0.00 in 0.00 W/m2
Foresthill Weather
 WU-history PHP script courtesy of   Juneau County Weather.
powered by Cumulus v1.9.3 (1059)
Ambient Weather VWS v14.00
Top Contact Website Map Copyright © 2007 - 2018 Foresthillweather.com Never base important decisions on this or any weather information obtained from the Internet